パンスターズ彗星

C/2017 K1 ( PanSTARRS )

English version
Home page
Updated on September 23, 2018

---------------------------------------------------------------------

・ プロフィール

発見日 2017年5月21日
発見光度 20.3等
発見者 Pan-STARRS 1 telescope (Haleakala)

・ 写真集

・ 軌道要素

Epoch 2018 Mar. 23.0 TT = JDT 2458200.5
T 2018 Mar. 14.21764 TT                                 MPCW
q   7.2856165            (2000.0)            P               Q
z  -0.0003366      Peri.    4.16349     -0.74395190     -0.59022376
 +/-0.0000019      Node   225.64222     -0.62505235     +0.44882442
e   1.0024521      Incl.  154.00952     -0.23631574     +0.67096390
From 92 observations 2017 May 21-2018 June 18, mean residual 0".5.

・ 光度変化

        m1 = 6.5 + 5 logΔ + 10.0 log r

---------------------------------------------------------------------

軌道要素はM.P.E.C. 2018-S50に掲載されたものです。
光度グラフはComet for Windowsで作成したものです。

---------------------------------------------------------------------

Copyright(C) Seiichi Yoshida (comet@aerith.net). All rights reserved.